Location: Possagno
(45.8500°N, 11.8667°E)
Time: 03:25:50
(UTC+00:00)

Envisat - Pass Details

Date: 01 August 2021
Orbit: 764 x 766 km, 98.2° (Epoch: 22 September)

Event Time Altitude Azimuth Distance (km) Brightness Sun altitude
Rises 03:04:00 0° 32° (NNE) 3,243 7.8 -8.4°
Reaches altitude 10° 03:07:43 10° 60° (ENE) 2,310 7.2 -7.9°
Maximum altitude 03:09:59 13° 87° (E) 2,107 6.2 -7.6°
Drops below altitude 10° 03:12:15 10° 114° (ESE) 2,301 5.9 -7.3°
Sets 03:15:56 0° 142° (SE) 3,220 6.3 -6.7°
